Driggs, ID

5:47 PM MST on November 14, 2019 (GMT -0700)
Driggs

Weather History for KDIJ - October, 2019

Change the Weather History Date:

Tuesday, October 22, 2019

  Actual Average (KJAC) Record (KJAC)
Temperature  
Mean Temperature 40 °F -  
Max Temperature 46 °F 54 °F 71 °F (2003)
Min Temperature 35 °F 22 °F 10 °F (1984)
Degree Days  
Heating Degree Days 24    
Moisture  
Dew Point 33 °F    
Average Humidity 77    
Maximum Humidity 89    
Minimum Humidity 63    
Precipitation  
Precipitation 0.04 in - - ()
Sea Level Pressure  
Sea Level Pressure 30.23 in    
Wind  
Wind Speed 11 mph (South)    
Max Wind Speed 17 mph    
Max Gust Speed 24 mph    
Visibility 10 miles    
Events Rain    
Averages and records for this station are not official NWS values.
T = Trace of Precipitation, MM = Missing Value Source: NWS Daily Summary

Daily Weather History Graph

Daily Weather History Graph

Search for Another Location

Airport or City:

Astronomy

Oct. 22, 2019 Rise Set
Actual Time 7:47 AM MDT 6:29 PM MDT
Civil Twilight 7:17 AM MDT 6:59 PM MDT
Nautical Twilight 6:44 AM MDT 7:32 PM MDT
Astronomical Twilight 6:11 AM MDT 8:05 PM MDT
Moon 12:44 AM MDT (10/22) 3:56 PM MDT (10/22)
Length of Visible Light 11h 41m
Length of Day
10h 42m
Last Quarter, 36% of the Moon is Illuminated
Oct 22
Last Quarter
Oct 27
New
Nov 4
First Quarter
Nov 12
Full
Nov 19
Last Quarter

Hourly Weather History & Observations

Time (MDT) Temp. Windchill Dew Point Humidity Pressure Visibility Wind Dir Wind Speed Gust Speed Precip Events Conditions
12:56 AM 36.0 °F 29.0 °F 28.9 °F 76% 30.33 in 10.0 mi SSE 9.2 mph - N/A   Overcast
1:56 AM 36.0 °F 28.0 °F 28.0 °F 73% 30.33 in 10.0 mi South 11.5 mph - N/A   Overcast
2:56 AM 36.0 °F 30.3 °F 28.0 °F 73% 30.33 in 10.0 mi SSE 6.9 mph - N/A   Overcast
3:56 AM 35.1 °F 27.4 °F 28.9 °F 78% 30.33 in 10.0 mi SSE 10.4 mph - N/A   Overcast
4:56 AM 36.0 °F 28.5 °F 30.0 °F 79% 30.30 in 10.0 mi SSE 10.4 mph - N/A   Overcast
5:56 AM 37.0 °F 29.3 °F 28.9 °F 73% 30.30 in 10.0 mi South 11.5 mph - N/A   Overcast
6:56 AM 37.0 °F 28.9 °F 30.0 °F 76% 30.30 in 10.0 mi South 12.7 mph - N/A   Overcast
7:56 AM 37.0 °F 29.3 °F 30.0 °F 76% 30.30 in 10.0 mi South 11.5 mph - 0.00 in Rain Light Rain
8:56 AM 36.0 °F 30.3 °F 33.1 °F 89% 30.31 in 10.0 mi South 6.9 mph - 0.00 in Rain Light Rain
9:56 AM 39.0 °F 31.8 °F 34.0 °F 82% 30.30 in 10.0 mi South 11.5 mph - 0.00 in   Overcast
10:17 AM 39.2 °F 32.0 °F 33.8 °F 81% 30.27 in 10.0 mi SSE 11.5 mph - N/A   Overcast
10:56 AM 39.0 °F 32.3 °F 35.1 °F 86% 30.29 in 10.0 mi South 10.4 mph - N/A   Overcast
11:56 AM 39.9 °F 32.9 °F 35.1 °F 83% 30.28 in 10.0 mi South 11.5 mph - 0.01 in Rain Light Rain
12:56 PM 39.0 °F 31.4 °F 36.0 °F 89% 30.27 in 10.0 mi SSE 12.7 mph - 0.01 in Rain Light Rain
1:56 PM 39.9 °F 32.5 °F 37.0 °F 89% 30.24 in 10.0 mi South 12.7 mph - 0.02 in   Overcast
2:56 PM 39.9 °F 31.4 °F 36.0 °F 86% 30.20 in 10.0 mi SSE 16.1 mph - 0.00 in   Overcast
3:56 PM 46.0 °F 39.6 °F 37.0 °F 71% 30.17 in 10.0 mi SSW 15.0 mph - N/A   Overcast
4:10 PM 44.6 °F 37.8 °F 35.6 °F 71% 30.16 in 10.0 mi SSW 15.0 mph 21.9 mph N/A   Overcast
4:56 PM 45.0 °F 38.9 °F 36.0 °F 71% 30.17 in 10.0 mi SSW 12.7 mph - N/A   Overcast
5:56 PM 44.1 °F 38.1 °F 36.0 °F 73% 30.13 in 10.0 mi South 11.5 mph - N/A   Mostly Cloudy
6:56 PM 43.0 °F 36.4 °F 36.0 °F 76% 30.11 in 10.0 mi South 12.7 mph - N/A   Mostly Cloudy
7:56 PM 43.0 °F 35.1 °F 35.1 °F 74% 30.11 in 10.0 mi SW 17.3 mph 24.2 mph N/A   Partly Cloudy
8:56 PM 43.0 °F 35.1 °F 33.1 °F 68% 30.12 in 10.0 mi WSW 17.3 mph 20.7 mph N/A   Clear
9:56 PM 39.9 °F 33.4 °F 30.9 °F 70% 30.14 in 10.0 mi WSW 10.4 mph - N/A   Clear
10:56 PM 39.9 °F 32.9 °F 28.0 °F 63% 30.14 in 10.0 mi West 11.5 mph - N/A   Mostly Cloudy
11:56 PM 37.0 °F 33.3 °F 28.0 °F 70% 30.16 in 10.0 mi West 4.6 mph - N/A   Overcast